This demonstration page uses our WeatherBlox Daily Observations layout. Learn more.

38.89511, -77.03637

Hourly Observations for June 3, 2020

Temp ( °F °C ) Dew Point ( °F °C ) Humidity (%) Winds ( mph kmh ) Pressure ( in mb ) Visibility ( mi km ) Precip ( " mm )
12:52 am 00:52 Cloudy 70 21.1 59 15 68 68 S 7 11 29.83 1010 10 16.0934 0 0
1:52 am 01:52 Cloudy 69 20.6 61 16.1 76 76 S 7 11 29.82 1010 10 16.0934 0 0
2:52 am 02:52 Cloudy 69 20.6 61 16.1 76 76 S 6 9 29.82 1010 10 16.0934 0 0
3:52 am 03:52 Cloudy 68 20 61 16.1 78 78 S 7 11 29.81 1010 10 16.0934 0 0
4:52 am 04:52 Cloudy 69 20.6 64 17.8 84 84 S 8 13 29.8 1009 10 16.0934 0 0
5:52 am 05:52 Cloudy 69 20.6 62 16.7 78 78 SSW 7 11 29.81 1010 10 16.0934 0 0
6:52 am 06:52 Cloudy 70 21.1 63 17.2 79 79 SSW 7 11 29.8 1009 10 16.0934 0 0
7:52 am 07:52 Cloudy 73 22.8 66 18.9 79 79 S 12 19 29.78 1009 10 16.0934 0 0
8:52 am 08:52 Cloudy 78 25.6 64 17.8 62 62 SSW 7 11 29.78 1008 10 16.0934 0 0
9:52 am 09:52 Cloudy 83 28.3 66 18.9 57 57 SW 8 13 29.75 1008 10 16.0934 0 0
10:52 am 10:52 Cloudy 86 30 61 16.1 43 43 WSW 13 20 29.74 1007 10 16.0934 0 0
11:52 am 11:52 Cloudy 87 30.6 62 16.7 43 43 WSW 13 20 29.75 1007 10 16.0934 0 0
12:52 pm 12:52 Cloudy 86 30 64 17.8 48 48 SW 15 24 29.73 1007 10 16.0934 0 0
1:52 pm 13:52 Mostly Cloudy 89 31.7 65 18.3 45 45 SW 13 20 29.72 1007 10 16.0934 0 0
2:52 pm 14:52 Mostly Cloudy 91 32.8 65 18.3 42 42 SW 14 22 29.71 1006 10 16.0934 0 0
3:52 pm 15:52 Mostly Cloudy 92 33.3 64 17.8 40 40 WSW 18 30 29.69 1006 10 16.0934 0 0
4:52 pm 16:52 Partly Cloudy 91 32.8 63 17.2 39 39 SW 14 22 29.68 1005 10 16.0934 0 0
5:52 pm 17:52 Mostly Cloudy 90 32.2 65 18.3 44 44 SSW 15 24 29.68 1005 10 16.0934 0 0
6:52 pm 18:52 Mostly Cloudy 90 32.2 64 17.8 42 42 SW 12 19 29.69 1006 10 16.0934 0 0
7:52 pm 19:52 Mostly Cloudy 88 31.1 64 17.8 45 45 SW 8 13 29.7 1006 10 16.0934 0 0
8:52 pm 20:52 Clear 86 30 65 18.3 49 49 WSW 6 9 29.72 1006 10 16.0934 0 0
9:52 pm 21:52 Mostly Cloudy 79 26.1 71 21.7 77 77 S 7 11 29.74 1007 10 16.0934 0 0
10:52 pm 22:52 Cloudy 79 26.1 68 20 69 69 S 6 9 29.76 1008 10 16.0934 0 0
11:52 pm 23:52 Cloudy 83 28.3 63 17.2 51 51 W 7 11 29.78 1009 10 16.0934 0 0

Powered by AerisWeather